Simultaneous Nadir Overpasses (SNOs) Predictions

Prediction of SNOs between AURA and NPP Satellite Orbit:

Table of predicted SNOs for the next 14.0 days since TLE Epoch: 7/24/2021
Index Date (AURA) Time (AURA) Lat,Lon (AURA) SZA (AURA ) Date (NPP) Time (NPP) Lat,Lon (NPP) SZA (NPP ) Distance(km) Time Diff (sec)
1 07/25/2021 10:35:29 79.21, -83.97 73.89 07/25/2021 10:34:20 79.21, -83.99 73.94 0.64 69
2 07/25/2021 11:24:49 -79.49, 85.50 106.52 07/25/2021 11:24:57 -79.49, 85.53 106.53 0.52 8
3 07/28/2021 02:51:57 79.25, 32.15 74.43 07/28/2021 02:51:16 79.25, 32.04 74.48 2.41 41
4 07/28/2021 03:41:17 -79.53,-158.34 105.99 07/28/2021 03:41:53 -79.53,-158.41 106.00 1.42 36
5 07/30/2021 19:08:19 79.48, 149.53 74.72 07/30/2021 19:08:05 79.48, 149.67 74.70 2.92 14
6 07/30/2021 19:57:43 -79.60, -41.96 105.47 07/30/2021 19:58:47 -79.59, -42.08 105.49 2.58 64
7 08/02/2021 10:35:30 -79.17, 95.75 104.19 08/02/2021 10:34:27 -79.16, 95.64 104.12 2.44 63
8 08/02/2021 11:24:46 79.54, -94.15 75.28 08/02/2021 11:25:00 79.55, -94.03 75.25 2.56 14
9 08/05/2021 02:51:56 -79.27,-147.72 103.65 08/05/2021 02:51:21 -79.27,-147.82 103.60 2.23 35



Historial Predications of SNOs between AURA and NPP
